| time (UTC) | temp F | wind direction | speed MPH | gust MPH | rain 1hr in | rain 24hr in | rain mn in | humidity % | barometer mb |
| 20260509211343 | 64 | 46 | 10.0 | 0.0 | 0.00 | 0.00 | 0.00 | 34 | 1020.0 |
| 20260509210351 | 64 | 32 | 11.0 | 0.0 | 0.00 | 0.00 | 0.00 | 33 | 1020.1 |
| 20260509205334 | 64 | 17 | 11.0 | 0.0 | 0.00 | 0.00 | 0.00 | 33 | 1019.7 |
| 20260509204342 | 64 | 43 | 11.0 | 0.0 | 0.00 | 0.00 | 0.00 | 34 | 1019.6 |
| 20260509203327 | 65 | 26 | 13.0 | 0.0 | 0.00 | 0.00 | 0.00 | 33 | 1019.3 |
| 20260509202335 | 65 | 11 | 12.0 | 0.0 | 0.00 | 0.00 | 0.00 | 33 | 1019.4 |
| 20260509201339 | 64 | 352 | 15.0 | 0.0 | 0.00 | 0.00 | 0.00 | 34 | 1019.5 |
| 20260509200324 | 63 | 16 | 15.0 | 0.0 | 0.00 | 0.00 | 0.00 | 34 | 1019.5 |
| 20260509195331 | 63 | 12 | 16.0 | 0.0 | 0.00 | 0.00 | 0.00 | 34 | 1019.2 |
| 20260509194334 | 65 | 28 | 16.0 | 0.0 | 0.00 | 0.00 | 0.00 | 33 | 1019.6 |
| 20260509193343 | 65 | 352 | 11.0 | 0.0 | 0.00 | 0.00 | 0.00 | 31 | 1019.4 |
| 20260509192333 | 65 | 9 | 8.0 | 0.0 | 0.00 | 0.00 | 0.00 | 31 | 1019.6 |
| 20260509191337 | 63 | 313 | 10.0 | 0.0 | 0.00 | 0.00 | 0.00 | 31 | 1019.1 |
| 20260509190402 | 63 | 277 | 12.0 | 0.0 | 0.00 | 0.00 | 0.00 | 32 | 1018.1 |
| 20260509185349 | 65 | 298 | 12.0 | 0.0 | 0.00 | 0.00 | 0.00 | 29 | 1019.6 |
| 20260509184332 | 65 | 264 | 12.0 | 0.0 | 0.00 | 0.00 | 0.00 | 30 | 1019.4 |
| 20260509183336 | 64 | 220 | 9.0 | 0.0 | 0.00 | 0.00 | 0.00 | 31 | 1018.8 |
| 20260509182339 | 64 | 302 | 8.0 | 0.0 | 0.00 | 0.00 | 0.00 | 31 | 1018.8 |
| 20260509181404 | 64 | 246 | 5.0 | 0.0 | 0.00 | 0.00 | 0.00 | 30 | 1018.9 |
| 20260509180331 | 63 | 290 | 8.0 | 0.0 | 0.00 | 0.00 | 0.00 | 31 | 1018.2 |
| 20260509175336 | 63 | 309 | 4.0 | 0.0 | 0.00 | 0.00 | 0.00 | 32 | 1019.0 |
| 20260509174341 | 62 | 127 | 4.0 | 0.0 | 0.00 | 0.00 | 0.00 | 31 | 1019.5 |
| 20260509173325 | 62 | 298 | 9.0 | 0.0 | 0.00 | 0.00 | 0.00 | 32 | 1019.2 |
| 20260509172334 | 63 | 306 | 6.0 | 0.0 | 0.00 | 0.00 | 0.00 | 32 | 1019.2 |
| 20260509171342 | 62 | 263 | 7.0 | 0.0 | 0.00 | 0.00 | 0.00 | 33 | 1019.5 |
| 20260509170326 | 61 | 329 | 7.0 | 0.0 | 0.00 | 0.00 | 0.00 | 33 | 1019.4 |
| 20260509165330 | 61 | 319 | 9.0 | 0.0 | 0.00 | 0.00 | 0.00 | 34 | 1020.0 |
| 20260509164338 | 61 | 359 | 11.0 | 0.0 | 0.00 | 0.00 | 0.00 | 33 | 1020.0 |
| 20260509163401 | 62 | 302 | 10.0 | 0.0 | 0.00 | 0.00 | 0.00 | 35 | 1019.6 |
| 20260509162343 | 60 | 342 | 6.0 | 0.0 | 0.00 | 0.00 | 0.00 | 34 | 1019.9 |
| 20260509161347 | 59 | 288 | 5.0 | 0.0 | 0.00 | 0.00 | 0.00 | 38 | 1019.4 |
| 20260509160332 | 59 | 265 | 5.0 | 0.0 | 0.00 | 0.00 | 0.00 | 38 | 1018.6 |
| 20260509155340 | 58 | 273 | 2.0 | 0.0 | 0.00 | 0.00 | 0.00 | 39 | 1019.4 |
| 20260509154328 | 57 | 227 | 3.0 | 0.0 | 0.00 | 0.00 | 0.00 | 41 | 1019.6 |
| 20260509153333 | 56 | 102 | 3.0 | 0.0 | 0.00 | 0.00 | 0.00 | 43 | 1019.7 |
| 20260509152342 | 55 | 50 | 3.0 | 0.0 | 0.00 | 0.00 | 0.00 | 43 | 1019.9 |
| 20260509151350 | 54 | 69 | 4.0 | 0.0 | 0.00 | 0.00 | 0.00 | 45 | 1019.9 |
| 20260509150332 | 53 | 88 | 5.0 | 0.0 | 0.00 | 0.00 | 0.00 | 48 | 1019.4 |
| 20260509145337 | 52 | 81 | 6.0 | 0.0 | 0.00 | 0.00 | 0.00 | 49 | 1019.3 |
| 20260509144341 | 51 | 100 | 6.0 | 0.0 | 0.00 | 0.00 | 0.00 | 52 | 1019.4 |
| 20260509143345 | 51 | 86 | 6.0 | 0.0 | 0.00 | 0.00 | 0.00 | 54 | 1019.6 |
| 20260509142354 | 49 | 82 | 7.0 | 0.0 | 0.00 | 0.00 | 0.00 | 57 | 1019.5 |
| 20260509141341 | 48 | 66 | 5.0 | 0.0 | 0.00 | 0.00 | 0.00 | 61 | 1019.7 |
| 20260509140329 | 47 | 86 | 5.0 | 0.0 | 0.00 | 0.00 | 0.00 | 65 | 1019.7 |
| 20260509135333 | 45 | 71 | 4.0 | 0.0 | 0.00 | 0.00 | 0.00 | 65 | 1019.7 |
| 20260509134401 | 44 | 58 | 4.0 | 0.0 | 0.00 | 0.00 | 0.00 | 64 | 1019.6 |
| 20260509133325 | 44 | 75 | 4.0 | 0.0 | 0.00 | 0.00 | 0.00 | 62 | 1019.6 |
| 20260509132331 | 45 | 70 | 3.0 | 0.0 | 0.00 | 0.00 | 0.00 | 57 | 1019.2 |
| 20260509131335 | 48 | 5 | 1.0 | 0.0 | 0.00 | 0.00 | 0.00 | 55 | 1019.0 |
| 20260509130339 | 46 | 338 | 5.0 | 0.0 | 0.00 | 0.00 | 0.00 | 57 | 1018.8 |
| 20260509125348 | 45 | 274 | 6.0 | 0.0 | 0.00 | 0.00 | 0.00 | 56 | 1018.7 |
| 20260509124329 | 45 | 296 | 7.0 | 0.0 | 0.00 | 0.00 | 0.00 | 54 | 1018.6 |
| 20260509123334 | 45 | 294 | 6.0 | 0.0 | 0.00 | 0.00 | 0.00 | 54 | 1018.5 |
| 20260509122358 | 44 | 321 | 4.0 | 0.0 | 0.00 | 0.00 | 0.00 | 55 | 1018.4 |
| 20260509121341 | 43 | 315 | 5.0 | 0.0 | 0.00 | 0.00 | 0.00 | 55 | 1018.7 |
| 20260509120349 | 43 | 263 | 8.0 | 0.0 | 0.00 | 0.00 | 0.00 | 54 | 1017.8 |
| 20260509115321 | 45 | 255 | 7.0 | 0.0 | 0.00 | 0.00 | 0.00 | 50 | 1018.3 |
| 20260509114329 | 49 | 288 | 9.0 | 0.0 | 0.00 | 0.00 | 0.00 | 45 | 1018.4 |
| 20260509113352 | 52 | 317 | 13.0 | 0.0 | 0.00 | 0.00 | 0.00 | 43 | 1018.1 |
| 20260509112334 | 52 | 10 | 13.0 | 0.0 | 0.00 | 0.00 | 0.00 | 43 | 1018.0 |
| 20260509111342 | 51 | 304 | 12.0 | 0.0 | 0.00 | 0.00 | 0.00 | 44 | 1017.9 |
| 20260509110326 | 49 | 342 | 8.0 | 0.0 | 0.00 | 0.00 | 0.00 | 48 | 1018.1 |
| 20260509105331 | 47 | 343 | 7.0 | 0.0 | 0.00 | 0.00 | 0.00 | 52 | 1017.4 |
| 20260509104335 | 45 | 338 | 8.0 | 0.0 | 0.00 | 0.00 | 0.00 | 56 | 1017.7 |
| 20260509103344 | 45 | 289 | 9.0 | 0.0 | 0.00 | 0.00 | 0.00 | 58 | 1017.6 |
| 20260509102329 | 42 | 289 | 8.0 | 0.0 | 0.00 | 0.00 | 0.00 | 64 | 1017.9 |
| 20260509101333 | 41 | 276 | 5.0 | 0.0 | 0.00 | 0.00 | 0.00 | 64 | 1017.2 |
| 20260509100337 | 41 | 299 | 6.0 | 0.0 | 0.00 | 0.00 | 0.00 | 64 | 1017.1 |
| 20260509095325 | 41 | 280 | 6.0 | 0.0 | 0.00 | 0.00 | 0.00 | 63 | 1016.9 |
| 20260509094349 | 43 | 294 | 9.0 | 0.0 | 0.00 | 0.00 | 0.00 | 64 | 1016.7 |
| 20260509093351 | 44 | 264 | 10.0 | 0.0 | 0.00 | 0.00 | 0.00 | 64 | 1017.2 |
| 20260509092354 | 45 | 284 | 7.0 | 0.0 | 0.00 | 0.00 | 0.00 | 67 | 1017.0 |
| 20260509091357 | 43 | 271 | 7.0 | 0.0 | 0.00 | 0.00 | 0.00 | 69 | 1016.2 |
| 20260509090344 | 43 | 251 | 8.0 | 0.0 | 0.00 | 0.00 | 0.00 | 69 | 1016.1 |
| 20260509085328 | 44 | 255 | 5.0 | 0.0 | 0.00 | 0.00 | 0.00 | 68 | 1016.7 |
| 20260509084332 | 44 | 274 | 5.0 | 0.0 | 0.00 | 0.00 | 0.00 | 68 | 1016.4 |
| 20260509083356 | 45 | 269 | 5.0 | 0.0 | 0.00 | 0.00 | 0.00 | 68 | 1016.3 |
| 20260509082326 | 45 | 283 | 5.0 | 0.0 | 0.00 | 0.00 | 0.00 | 68 | 1016.1 |
| 20260509081334 | 45 | 276 | 6.0 | 0.0 | 0.00 | 0.00 | 0.00 | 68 | 1016.1 |
| 20260509080337 | 46 | 252 | 6.0 | 0.0 | 0.00 | 0.00 | 0.00 | 67 | 1015.8 |
| 20260509075340 | 47 | 235 | 7.0 | 0.0 | 0.00 | 0.00 | 0.00 | 68 | 1015.9 |
| 20260509074330 | 46 | 252 | 9.0 | 0.0 | 0.00 | 0.00 | 0.00 | 69 | 1015.8 |
| 20260509073335 | 45 | 242 | 5.0 | 0.0 | 0.00 | 0.00 | 0.00 | 66 | 1015.1 |
| 20260509072338 | 47 | 196 | 5.0 | 0.0 | 0.00 | 0.00 | 0.00 | 64 | 1015.6 |
| 20260509071340 | 49 | 196 | 4.0 | 0.0 | 0.00 | 0.00 | 0.00 | 62 | 1015.1 |
| 20260509070343 | 51 | 236 | 3.0 | 0.0 | 0.00 | 0.00 | 0.00 | 61 | 1015.5 |
| 20260509065331 | 52 | 244 | 3.0 | 0.0 | 0.00 | 0.00 | 0.00 | 59 | 1015.4 |
| 20260509064334 | 53 | 240 | 4.0 | 0.0 | 0.00 | 0.00 | 0.00 | 56 | 1015.3 |
| 20260509063338 | 55 | 356 | 5.0 | 0.0 | 0.00 | 0.00 | 0.00 | 55 | 1014.9 |
| 20260509062342 | 56 | 12 | 9.0 | 0.0 | 0.00 | 0.00 | 0.00 | 53 | 1014.5 |
| 20260509061331 | 57 | 2 | 11.0 | 0.0 | 0.00 | 0.00 | 0.00 | 52 | 1014.5 |
| 20260509060335 | 57 | 3 | 6.0 | 0.0 | 0.00 | 0.00 | 0.00 | 51 | 1014.5 |
| 20260509055339 | 57 | 354 | 5.0 | 0.0 | 0.00 | 0.00 | 0.00 | 50 | 1014.5 |
| 20260509054343 | 57 | 15 | 4.0 | 0.0 | 0.00 | 0.00 | 0.00 | 48 | 1014.2 |
| 20260509053351 | 57 | 349 | 6.0 | 0.0 | 0.00 | 0.00 | 0.00 | 48 | 1014.2 |
| 20260509052334 | 55 | 352 | 5.0 | 0.0 | 0.00 | 0.00 | 0.00 | 50 | 1014.5 |
| 20260509051338 | 55 | 313 | 5.0 | 0.0 | 0.00 | 0.00 | 0.00 | 49 | 1014.4 |
| 20260509050325 | 56 | 307 | 6.0 | 0.0 | 0.00 | 0.00 | 0.00 | 48 | 1014.3 |
| 20260509045331 | 58 | 284 | 6.0 | 0.0 | 0.00 | 0.00 | 0.00 | 46 | 1014.5 |
| 20260509044339 | 58 | 290 | 8.0 | 0.0 | 0.00 | 0.00 | 0.00 | 47 | 1014.4 |
| 20260509043327 | 59 | 281 | 6.0 | 0.0 | 0.00 | 0.00 | 0.00 | 47 | 1013.9 |
| 20260509042332 | 60 | 298 | 5.0 | 0.0 | 0.00 | 0.00 | 0.00 | 46 | 1013.8 |
| 20260509041356 | 61 | 290 | 5.0 | 0.0 | 0.00 | 0.00 | 0.00 | 45 | 1013.5 |
| 20260509040343 | 62 | 336 | 4.0 | 0.0 | 0.00 | 0.00 | 0.00 | 45 | 1014.4 |
| 20260509035327 | 63 | 306 | 4.0 | 0.0 | 0.00 | 0.00 | 0.00 | 41 | 1013.9 |
| 20260509034332 | 63 | 299 | 6.0 | 0.0 | 0.00 | 0.00 | 0.00 | 40 | 1013.8 |
| 20260509033356 | 62 | 153 | 6.0 | 0.0 | 0.00 | 0.00 | 0.00 | 45 | 1013.3 |
| 20260509032344 | 64 | 216 | 8.0 | 0.0 | 0.00 | 0.00 | 0.00 | 41 | 1013.7 |
| 20260509031327 | 63 | 161 | 10.0 | 0.0 | 0.00 | 0.00 | 0.00 | 42 | 1013.5 |
| 20260509030332 | 63 | 133 | 6.0 | 0.0 | 0.00 | 0.00 | 0.00 | 43 | 1014.5 |
| 20260509025335 | 63 | 130 | 6.0 | 0.0 | 0.00 | 0.00 | 0.00 | 44 | 1012.6 |
| 20260509024340 | 64 | 73 | 9.0 | 0.0 | 0.00 | 0.00 | 0.00 | 41 | 1013.2 |
| 20260509023348 | 65 | 70 | 8.0 | 0.0 | 0.00 | 0.00 | 0.00 | 40 | 1013.1 |
| 20260509022330 | 66 | 222 | 10.0 | 0.0 | 0.00 | 0.00 | 0.00 | 39 | 1012.3 |
| 20260509021335 | 66 | 192 | 11.0 | 0.0 | 0.00 | 0.00 | 0.00 | 37 | 1012.4 |
| 20260509020340 | 66 | 17 | 10.0 | 0.0 | 0.00 | 0.00 | 0.00 | 38 | 1013.2 |
| 20260509015328 | 66 | 11 | 9.0 | 0.0 | 0.00 | 0.00 | 0.00 | 36 | 1012.2 |
| 20260509014333 | 67 | 360 | 15.0 | 0.0 | 0.00 | 0.00 | 0.00 | 36 | 1012.2 |
| 20260509013340 | 67 | 336 | 11.0 | 0.0 | 0.00 | 0.00 | 0.00 | 34 | 1012.2 |
| 20260509012343 | 68 | 314 | 8.0 | 0.0 | 0.00 | 0.00 | 0.00 | 33 | 1012.0 |
| 20260509011330 | 68 | 219 | 14.0 | 0.0 | 0.00 | 0.00 | 0.00 | 32 | 1011.8 |
| 20260509010335 | 68 | 252 | 16.0 | 0.0 | 0.00 | 0.00 | 0.00 | 32 | 1012.5 |
| 20260509005338 | 68 | 264 | 15.0 | 0.0 | 0.00 | 0.00 | 0.00 | 32 | 1011.7 |
| 20260509004342 | 70 | 309 | 14.0 | 0.0 | 0.00 | 0.00 | 0.00 | 30 | 1011.3 |
| 20260509003327 | 71 | 244 | 8.0 | 0.0 | 0.00 | 0.00 | 0.00 | 28 | 1011.8 |
| 20260509002336 | 72 | 275 | 4.0 | 0.0 | 0.00 | 0.00 | 0.00 | 29 | 1011.6 |
| 20260509001343 | 73 | 350 | 3.0 | 0.0 | 0.00 | 0.00 | 0.00 | 28 | 1011.1 |
| 20260509000328 | 73 | 323 | 3.0 | 0.0 | 0.00 | 0.00 | 0.00 | 27 | 1011.2 |
| 20260508235353 | 73 | 334 | 6.0 | 0.0 | 0.00 | 0.00 | 0.00 | 26 | 1011.7 |
| 20260508234344 | 73 | 66 | 6.0 | 0.0 | 0.00 | 0.00 | 0.00 | 26 | 1011.0 |
| 20260508233327 | 73 | 35 | 10.0 | 0.0 | 0.00 | 0.00 | 0.00 | 27 | 1011.7 |
| 20260508232329 | 74 | 23 | 9.0 | 0.0 | 0.00 | 0.00 | 0.00 | 26 | 1011.7 |
| 20260508231353 | 74 | 322 | 12.0 | 0.0 | 0.00 | 0.00 | 0.00 | 24 | 1011.0 |
| 20260508230336 | 74 | 284 | 11.0 | 0.0 | 0.00 | 0.00 | 0.00 | 26 | 1011.8 |
| 20260508225344 | 74 | 227 | 10.0 | 0.0 | 0.00 | 0.00 | 0.00 | 25 | 1011.2 |
| 20260508224328 | 72 | 249 | 5.0 | 0.0 | 0.00 | 0.00 | 0.00 | 27 | 1011.7 |
| 20260508223332 | 72 | 234 | 4.0 | 0.0 | 0.00 | 0.00 | 0.00 | 26 | 1011.8 |
| 20260508222337 | 72 | 259 | 5.0 | 0.0 | 0.00 | 0.00 | 0.00 | 27 | 1011.8 |
| 20260508221345 | 73 | 199 | 4.0 | 0.0 | 0.00 | 0.00 | 0.00 | 27 | 1011.8 |
| 20260508220328 | 72 | 227 | 5.0 | 0.0 | 0.00 | 0.00 | 0.00 | 26 | 1012.1 |
| 20260508215355 | 72 | 249 | 4.0 | 0.0 | 0.00 | 0.00 | 0.00 | 26 | 1011.8 |
| 20260508214339 | 73 | 271 | 7.0 | 0.0 | 0.00 | 0.00 | 0.00 | 27 | 1011.8 |
| 20260508213327 | 72 | 205 | 7.0 | 0.0 | 0.00 | 0.00 | 0.00 | 26 | 1011.9 |
| 20260508212351 | 72 | 334 | 5.0 | 0.0 | 0.00 | 0.00 | 0.00 | 27 | 1012.1 |